Tracking 19628 objects as of 26-May-2019
HD Live streaming from Space Station
objects crossing your sky now
Watch Starlink satellites crossing your sky!

FLOCK 3P 60

Track FLOCK 3P 60 now!
10-day predictions
FLOCK 3P 60 is classified as:


NORAD ID: 41976
Int'l Code: 2017-008AE
Perigee: 492.3 km
Apogee: 501.6 km
Inclination: 97.4 °
Period: 94.4 minutes
Semi major axis: 6867 km
RCS: Unknown
Launch date: February 15, 2017
Source: United States (US)
Launch site: SRIHARIKOTA (SRI)
aabbcc
Your satellite tracking list
Your tracking list is empty




NASA's NSSDC Master Catalog

Two Line Element Set (TLE):
1 41976U 17008AE  19145.86951871 +.00001105 +00000-0 +46696-4 0  9990
2 41976 097.4085 213.1987 0006699 216.9447 143.1331 15.25324682125503
Source of the keplerian elements: AFSPC